GFSNE_sfc_wetblb_225.txt.gz
Wetbulb
38.96 38.32 37.81 37.52 37.64 37.97 39.16 41.86 36.68 31.80 32.21 34.03 35.67 35.23 35.59 34.84 39.07 34.49 34.29 40.91 41.67 41.91 42.55 42.55 42.40 42.70 43.12 43.22 43.55 43.60 43.81 43.69 43.76 44.05 44.34 44.39 44.79 45.27
38.38 37.55 37.27 36.99 36.76 36.59 36.95 36.61 36.28 33.67 30.64 32.76 31.84 33.21 34.13 36.48 38.35 34.10 34.77 39.52 40.30 41.33 41.63 41.65 41.80 41.96 42.23 42.58 42.58 42.86 43.06 43.12 43.30 43.44 43.49 43.63 43.97 44.38
36.68 36.87 36.06 35.94 35.27 34.43 34.79 34.08 35.27 33.74 31.56 31.48 33.29 32.16 31.72 32.22 33.52 33.84 34.75 33.35 33.51 40.27 41.22 41.37 41.57 41.46 41.53 41.87 42.00 42.20 42.49 42.66 42.45 42.39 42.51 42.58 43.07 43.48
35.85 35.95 35.02 36.69 34.45 34.97 34.54 35.36 33.58 34.19 32.62 29.58 30.71 31.39 31.07 31.68 31.42 30.85 34.20 35.70 33.04 38.24 40.24 40.73 40.93 41.07 41.57 41.82 41.67 41.67 41.85 41.44 41.27 41.04 41.57 41.67 42.09 42.41
35.90 35.31 34.97 35.23 34.57 34.72 34.60 33.56 34.23 34.79 33.35 31.48 30.28 31.19 30.79 30.54 30.40 31.11 32.38 31.53 34.90 38.85 39.32 39.60 40.36 40.87 40.84 41.40 40.82 40.84 40.29 40.26 40.65 40.67 40.65 40.85 40.77 41.10
36.12 36.22 35.57 35.14 34.35 33.94 34.79 34.10 34.00 33.13 32.59 31.89 30.79 30.91 30.49 31.47 30.13 29.44 29.31 30.79 31.48 35.02 36.63 37.77 39.19 39.64 40.18 40.52 39.90 39.31 39.54 40.00 40.46 40.51 40.32 39.62 39.60 39.92
35.05 35.89 36.06 37.18 38.89 37.62 35.53 34.21 33.90 32.93 32.16 31.25 30.77 30.32 30.22 29.40 28.74 29.41 28.15 29.23 30.59 31.39 31.19 31.91 32.69 33.71 33.27 36.99 37.13 38.36 39.46 39.61 39.86 40.07 40.04 39.27 39.38 39.49
34.43 35.49 37.00 38.79 39.34 39.64 38.88 37.72 35.57 32.33 31.28 31.12 30.06 28.84 28.96 28.61 29.18 28.91 28.48 27.89 27.35 31.71 29.77 31.24 31.95 31.91 32.43 33.04 37.44 38.37 38.48 38.80 39.07 39.66 39.31 38.89 39.15 39.33
34.23 33.53 33.70 35.89 36.04 35.15 36.45 36.19 36.00 36.62 35.61 32.05 30.27 29.60 28.60 29.76 30.17 29.51 29.34 28.60 28.54 31.34 30.01 28.78 29.96 28.73 31.15 33.20 35.94 36.96 37.60 38.14 38.62 38.90 38.77 38.62 38.79 38.84
34.13 33.95 33.97 33.88 34.18 33.88 33.68 32.83 33.08 34.03 34.34 34.59 32.71 32.11 31.88 31.93 31.97 31.94 30.85 29.76 29.38 29.93 29.81 25.06 26.70 26.11 28.15 29.78 34.97 36.48 37.17 37.39 37.19 37.37 37.73 38.16 38.12 37.37
34.46 34.14 33.56 32.82 35.38 36.20 33.41 31.86 31.49 32.36 35.92 38.03 36.71 36.80 36.90 36.32 35.26 30.13 27.30 26.35 25.20 26.62 27.88 25.48 25.79 25.13 27.08 26.84 29.73 35.07 36.15 36.03 36.16 36.76 37.17 36.95 36.60 36.53
33.45 33.67 35.21 33.83 37.06 36.47 32.36 30.90 29.55 30.05 30.36 30.77 30.84 31.51 31.83 31.98 33.39 29.41 27.33 24.52 25.67 25.12 26.52 25.05 24.65 25.59 23.43 25.57 26.71 29.24 28.86 33.27 34.76 35.04 35.32 35.67 35.75 31.85
31.88 31.90 33.91 36.30 37.07 36.30 35.34 32.13 31.32 32.05 31.69 29.96 29.51 27.56 27.23 27.96 27.69 27.84 27.68 25.00 20.71 24.23 27.88 28.43 26.98 24.98 26.01 24.85 25.11 26.67 27.95 28.33 28.81 30.06 33.00 34.13 34.79 34.04
31.62 32.37 33.12 36.53 35.99 35.39 34.90 35.22 34.79 33.08 30.04 28.74 27.01 26.43 26.18 25.80 25.93 26.72 27.24 26.88 27.10 27.89 27.35 26.47 24.78 26.16 25.91 22.94 23.46 26.01 27.28 27.87 28.10 28.20 28.12 31.32 33.18 33.82
32.74 33.32 35.10 35.86 35.02 34.51 35.35 34.38 33.39 29.25 27.79 26.16 25.80 25.53 25.89 24.61 26.72 26.25 27.08 27.15 26.89 26.78 27.89 25.27 23.62 25.05 23.76 22.90 23.50 25.00 25.72 26.90 27.65 25.73 25.31 26.99 27.29 28.38
34.56 33.80 34.29 33.80 33.79 32.71 31.78 31.07 29.31 28.01 26.96 25.25 25.31 25.44 25.41 23.67 23.79 24.00 19.95 20.22 15.52 21.75 26.34 23.86 21.67 21.33 22.33 23.60 24.92 24.04 25.65 24.08 26.28 27.52 27.90 28.02 27.91 27.80
31.90 30.74 29.47 29.06 29.00 28.70 28.55 28.10 27.70 27.23 26.21 25.06 24.90 23.74 25.44 25.03 24.94 22.12 19.09 14.73 13.02 17.51 20.39 22.47 25.09 22.56 22.52 22.31 22.47 23.93 24.35 24.25 25.33 25.46 25.20 24.02 25.60 26.21
29.70 27.99 27.61 27.43 27.34 27.06 26.49 25.94 25.92 27.10 25.44 25.13 23.40 22.47 20.38 19.44 19.60 18.85 19.56 13.18 11.91 18.88 17.35 18.50 14.31 16.32 21.22 23.26 27.45 22.19 24.30 23.29 24.68 25.18 24.19 23.34 23.25 25.66
28.10 27.57 27.53 27.54 27.21 26.94 26.14 25.30 24.23 25.34 25.22 20.36 18.11 17.90 22.91 19.21 20.47 15.94 16.83 15.75 17.42 19.13 19.38 17.25 8.85 5.92 16.33 15.37 21.96 29.27 23.16 24.06 24.08 23.19 23.77 23.43 22.74 24.47
27.67 27.02 26.74 26.82 26.10 25.04 24.34 23.19 23.33 23.36 21.23 21.07 18.64 16.59 13.98 14.95 12.33 16.33 18.28 11.38 16.52 17.99 19.36 13.68 7.20 6.81 14.08 18.50 20.90 23.45 29.10 24.42 23.41 22.14 22.69 24.79 26.00 29.58
26.84 26.06 26.02 25.61 24.61 24.15 24.38 24.12 23.28 21.46 18.33 14.02 15.30 15.59 15.34 11.52 13.07 16.72 15.09 22.82 22.83 16.36 15.39 16.94 19.69 27.26 21.45 15.89 20.51 21.39 24.02 28.85 28.19 24.40 23.69 22.23 21.51 22.30
26.04 25.18 25.05 25.20 25.03 23.49 22.86 21.10 17.36 18.53 16.55 16.40 15.74 16.66 16.94 20.52 18.52 20.57 20.76 16.26 18.10 18.67 18.49 18.96 20.42 16.52 6.34 14.00 19.94 21.30 21.84 24.71 27.05 28.65 28.59 27.11 22.59 19.55
24.63 24.61 24.34 24.77 23.56 22.46 20.20 17.85 18.29 19.14 22.09 22.72 22.27 21.88 21.55 19.68 22.18 22.56 22.07 20.26 19.08 18.50 17.03 17.19 18.70 15.36 15.23 14.35 21.94 20.31 19.04 20.28 21.38 20.73 22.48 27.77 28.50 28.79

GFSNE_sfc_wetblb_231.txt.gz
Wetbulb
47.20 43.82 42.58 41.16 41.20 43.73 42.21 41.07 37.43 31.65 32.57 33.61 33.90 34.68 34.57 36.50 38.15 33.44 33.79 40.49 40.81 41.22 41.76 41.93 41.86 42.01 42.38 42.83 43.43 43.50 43.80 44.36 44.50 45.01 45.34 45.06 45.24 45.37
44.15 42.11 39.74 38.50 38.89 40.32 41.82 39.74 37.17 35.83 32.03 32.67 32.06 31.85 33.72 36.53 37.50 32.99 34.78 37.80 39.62 40.45 41.00 40.99 41.62 41.83 41.85 42.08 42.79 43.03 43.46 43.34 43.93 44.49 44.65 44.63 44.38 44.64
40.59 41.91 39.03 37.55 37.07 37.71 38.89 36.40 35.36 34.35 31.60 30.62 31.35 30.78 31.88 33.47 33.47 33.18 33.94 31.75 32.09 39.25 40.16 40.49 40.80 41.25 41.52 41.78 42.03 42.50 42.71 42.23 42.69 42.62 42.95 43.54 43.65 44.13
40.08 38.71 36.70 37.18 35.68 35.86 36.66 34.35 34.14 33.81 32.05 29.41 30.29 30.78 31.44 30.21 30.36 30.09 32.87 34.25 31.58 37.06 39.94 40.22 40.34 40.67 41.16 41.36 41.18 41.17 41.62 41.05 40.96 41.36 41.61 42.21 43.15 43.45
39.09 37.97 35.66 35.15 33.30 33.42 33.35 31.69 32.08 33.51 32.43 31.36 28.98 30.69 30.01 30.61 29.45 30.39 30.21 29.88 33.50 37.25 38.27 38.86 39.44 40.01 40.39 40.20 40.16 39.99 39.66 39.74 39.98 40.28 40.85 41.10 41.63 42.41
38.96 38.46 36.08 35.80 34.53 32.95 32.79 32.60 32.65 31.63 31.75 31.43 30.75 30.29 30.22 30.52 29.86 29.18 28.79 30.24 30.16 33.68 35.13 36.77 37.67 37.75 38.08 38.23 37.60 37.22 37.81 38.81 39.68 39.93 40.15 40.17 40.08 40.73
36.51 36.22 35.84 36.39 38.04 36.53 34.18 32.84 32.20 31.69 31.73 30.51 30.00 29.60 29.36 29.56 29.03 28.97 28.38 28.33 29.47 29.85 29.70 31.00 30.94 30.73 31.08 33.72 34.41 36.35 37.04 37.74 38.37 38.92 39.48 39.92 39.89 40.17
33.83 34.05 36.18 38.06 39.24 39.79 38.50 37.79 35.16 32.28 30.97 30.95 30.81 30.01 30.07 28.84 28.10 28.56 28.66 28.20 26.53 30.02 29.50 29.44 29.83 29.15 29.14 29.09 34.65 35.69 36.50 37.73 38.22 38.36 38.11 37.98 38.09 38.40
34.34 34.93 35.05 37.37 37.99 36.96 39.49 39.59 38.92 38.36 36.42 33.38 31.17 30.01 28.75 29.14 29.41 28.90 28.60 28.75 28.41 30.04 28.60 27.25 29.23 27.85 28.31 30.02 33.55 35.27 35.95 36.21 36.29 36.59 36.76 36.84 36.98 37.35
35.11 35.10 35.70 35.46 36.26 35.57 34.43 34.28 34.54 34.98 35.15 33.91 31.57 31.14 31.73 31.55 31.67 30.96 29.91 29.07 29.32 29.47 28.56 24.02 26.62 26.88 28.18 28.95 32.91 34.19 35.01 35.11 34.84 35.21 35.72 35.89 36.05 36.06
34.87 35.45 34.70 34.78 38.28 37.28 33.30 33.03 33.13 33.70 38.05 37.72 36.38 36.74 36.83 36.62 34.31 30.84 28.05 26.87 25.83 27.06 27.34 24.81 25.96 24.29 26.16 26.36 28.14 32.94 34.12 33.84 33.83 34.30 34.51 34.93 35.22 35.36
33.66 34.60 37.00 35.64 38.09 37.15 33.44 32.46 30.98 30.86 32.18 32.78 32.43 33.91 34.67 34.24 34.74 29.98 28.80 26.23 26.17 24.37 27.57 24.71 25.55 25.39 21.50 26.19 27.26 28.25 28.03 31.53 32.61 32.72 33.38 33.97 34.30 30.44
32.61 32.95 35.27 38.46 38.33 37.85 35.90 32.99 32.13 31.46 33.78 29.77 28.49 29.07 28.36 28.11 27.84 28.61 28.91 27.25 24.86 24.36 26.81 25.30 20.53 23.58 22.35 23.24 26.30 26.44 26.69 26.48 26.43 27.41 31.14 32.42 33.20 32.59
32.59 33.99 36.86 39.08 39.10 37.53 34.71 35.70 36.11 34.35 30.44 29.03 27.76 27.45 27.26 27.15 27.91 28.23 28.32 28.10 27.61 25.84 27.45 26.93 18.25 20.69 19.47 21.97 21.05 24.16 24.37 24.74 24.98 24.94 26.23 29.61 31.22 31.99
34.39 35.60 38.71 39.31 38.56 36.79 35.55 36.59 36.08 30.78 29.31 27.73 27.36 27.51 27.82 27.75 27.79 27.44 27.73 27.48 27.07 27.05 28.10 26.26 19.96 15.76 18.07 21.04 20.26 20.69 21.98 22.34 24.19 24.04 24.93 25.24 25.48 26.28
37.24 36.93 37.32 37.28 36.22 35.31 34.95 34.72 31.03 29.74 28.51 27.92 27.81 27.69 27.36 26.82 25.92 26.20 23.06 23.04 18.12 21.24 25.83 23.51 19.19 15.10 10.76 17.46 18.83 18.91 20.80 14.21 22.27 23.39 24.37 25.32 25.87 26.29
34.09 33.88 34.01 32.80 31.92 31.55 30.65 29.58 29.37 29.36 28.03 27.51 26.47 26.08 26.63 26.48 25.70 24.44 22.26 16.77 14.10 15.12 15.62 19.28 22.30 21.33 19.34 16.15 17.35 19.05 19.78 20.19 22.28 22.98 23.22 23.28 25.26 25.52
32.71 31.61 31.18 30.69 30.10 29.89 28.81 28.07 28.03 29.13 28.07 27.32 26.40 25.63 23.96 22.45 21.05 20.81 19.68 14.02 12.46 12.64 10.78 13.90 11.07 13.15 15.05 19.75 24.49 18.42 20.29 20.84 22.74 22.94 22.84 21.90 21.82 24.45
30.67 30.58 30.03 29.61 29.42 29.26 28.66 27.58 26.73 27.73 27.53 26.03 23.35 22.40 20.88 19.56 21.77 15.30 15.88 14.86 12.46 13.14 13.24 11.26 4.25 10.69 8.92 11.67 18.77 26.93 19.72 21.14 21.28 21.35 22.44 23.27 22.08 23.23
30.14 29.52 29.10 29.19 28.90 28.33 27.54 26.78 26.61 25.74 24.27 23.76 22.33 21.54 19.18 15.90 11.58 12.35 12.98 8.42 8.83 10.83 9.74 7.22 2.24 -0.72 12.64 16.01 16.24 20.22 25.70 20.81 20.80 20.83 22.67 23.48 24.79 28.05
29.00 28.85 29.13 28.72 28.11 27.95 27.56 26.70 25.87 24.05 21.22 19.03 18.62 17.39 15.75 12.60 9.98 12.20 11.91 21.73 19.98 10.53 8.33 10.21 12.69 23.58 11.53 6.33 9.71 16.72 21.35 26.34 25.84 22.58 22.15 21.41 21.13 21.20
28.13 27.35 27.31 27.81 27.72 26.99 25.46 24.53 22.32 24.16 20.38 18.06 16.56 14.81 14.89 12.16 9.58 12.22 14.65 10.62 13.14 13.20 11.49 14.83 15.45 8.48 3.55 8.38 13.37 14.91 18.51 21.97 24.72 26.46 27.57 26.31 21.20 17.95
26.42 26.36 26.28 26.30 26.04 25.13 23.88 21.88 21.20 21.33 19.57 16.90 14.38 12.28 9.45 12.83 15.62 16.41 16.08 16.48 14.20 10.31 10.90 8.68 8.72 7.12 8.68 8.91 18.53 18.13 16.38 17.60 20.04 19.79 21.28 26.56 27.56 27.83

GFSNE_sfc_wetblb_234.txt.gz
Wetbulb
48.17 46.36 45.67 42.59 43.92 43.21 41.73 41.17 38.51 32.78 34.19 33.55 33.85 36.00 35.34 35.48 39.74 33.70 33.28 41.03 41.19 41.42 41.76 41.71 41.65 41.97 42.38 42.75 43.08 43.47 43.73 44.15 44.58 45.34 45.80 45.65 45.65 45.79
47.55 44.58 42.21 40.39 41.78 42.66 41.85 39.86 38.24 36.83 33.95 32.95 33.03 32.25 34.02 36.46 38.10 32.54 33.75 38.88 40.30 40.90 41.05 40.95 41.18 41.69 42.00 42.10 42.48 42.99 43.45 43.69 43.47 44.16 44.38 44.37 44.69 44.90
45.36 45.59 42.17 40.37 39.76 41.27 41.02 38.34 37.16 36.53 33.16 30.09 30.96 30.39 31.12 32.85 33.95 32.61 34.80 31.52 31.88 39.74 40.06 40.34 40.33 40.83 41.26 41.80 41.85 42.15 42.33 42.81 42.77 42.89 43.19 43.37 43.45 44.05
44.51 44.21 42.06 40.59 38.66 38.97 40.82 37.87 37.20 35.08 33.10 29.34 29.68 30.26 30.60 30.99 30.54 29.95 32.60 33.77 31.38 37.14 39.48 39.59 39.73 40.18 40.78 41.06 41.14 41.07 40.96 41.03 40.79 41.04 41.41 41.92 42.49 42.78
44.94 44.35 42.15 39.64 37.48 36.98 37.60 36.16 34.91 34.38 32.39 30.59 29.08 30.72 29.27 30.26 30.17 29.59 29.71 30.91 32.75 37.14 38.05 38.52 39.00 39.21 39.37 39.31 39.23 39.08 38.50 38.59 39.28 40.00 40.38 40.72 41.25 41.43
43.77 43.91 41.50 40.73 39.99 37.04 36.53 35.00 33.55 32.40 31.81 31.65 29.59 29.28 29.48 29.75 29.25 29.21 28.43 29.33 29.88 33.38 35.09 36.89 36.81 36.90 37.31 37.15 36.27 36.27 37.13 37.76 38.41 39.09 39.34 39.64 40.03 40.36
40.50 40.99 39.58 40.53 41.39 39.79 36.28 33.48 32.83 31.32 31.28 30.59 28.93 28.66 28.09 28.81 29.15 28.45 28.24 28.98 29.17 30.57 30.08 30.44 31.05 30.53 30.97 32.43 33.37 35.31 36.40 37.43 38.45 38.82 39.10 39.03 38.80 38.70
34.95 34.37 35.84 38.61 39.56 41.01 39.04 37.44 35.39 32.37 30.32 30.24 29.40 29.18 29.13 29.92 29.79 29.96 28.72 27.54 26.47 30.00 30.36 29.87 29.71 29.24 29.24 28.73 34.04 35.20 36.09 36.65 36.73 36.50 36.61 36.96 37.39 37.56
35.08 35.09 35.11 36.94 37.86 36.72 39.08 39.17 38.53 38.23 36.22 32.45 30.21 30.29 30.10 30.86 30.69 29.00 29.04 29.05 28.20 29.69 29.46 28.11 28.75 28.16 28.46 29.61 33.14 34.57 35.42 35.61 35.68 35.64 35.67 36.02 36.34 36.59
35.63 35.66 35.66 35.83 36.54 36.65 35.12 34.53 34.16 34.40 34.05 33.91 32.68 32.00 31.92 32.23 31.81 30.88 30.06 29.80 30.12 29.73 29.31 25.76 27.67 27.44 28.48 28.30 32.23 33.71 34.74 34.81 34.54 34.60 34.76 34.94 35.07 35.51
34.95 35.70 35.94 35.60 39.46 38.48 33.78 32.49 32.81 33.59 37.14 37.10 36.33 37.03 37.07 36.72 34.86 31.96 29.25 27.92 27.06 27.47 27.62 25.69 26.26 25.17 26.72 26.82 28.19 32.26 32.91 32.89 33.21 33.44 33.75 33.96 34.29 34.63
34.92 35.94 38.64 37.48 39.54 37.84 33.48 33.37 31.78 32.99 34.21 33.81 34.02 35.07 35.62 36.18 36.81 31.28 29.67 27.15 26.84 24.62 27.08 24.91 25.34 24.92 21.44 26.04 26.87 27.10 28.03 30.47 31.84 31.92 32.36 32.83 33.14 29.31
34.12 34.62 36.62 39.65 38.50 37.89 37.01 34.25 33.41 33.70 34.95 30.76 30.58 29.74 28.86 29.09 28.36 29.36 29.59 28.64 25.95 25.71 26.97 25.04 22.59 24.40 22.52 23.13 25.95 26.50 26.01 26.45 26.13 26.45 29.77 31.16 32.14 31.67
33.45 34.91 37.13 38.96 38.47 38.60 36.37 38.03 37.05 35.24 30.81 28.91 28.60 27.77 27.03 27.11 27.47 28.37 28.93 28.73 28.47 26.85 27.53 27.41 18.68 20.36 17.34 22.23 20.80 24.79 24.80 25.08 24.69 24.08 24.80 28.13 30.29 30.99
34.88 36.65 38.75 39.09 39.48 37.35 37.77 37.22 35.85 30.74 29.60 28.00 27.68 27.78 28.18 27.76 28.15 27.88 28.38 28.20 27.98 27.62 28.24 27.27 21.45 17.84 18.33 21.44 20.58 20.66 22.39 22.00 23.28 22.30 23.47 23.69 24.07 25.22
37.37 38.04 38.66 38.79 36.40 34.88 35.44 34.55 31.08 30.51 29.48 28.11 27.70 27.63 27.12 26.95 26.24 26.91 23.76 22.67 20.27 22.90 26.04 23.37 21.72 19.44 17.56 18.76 18.49 17.77 20.38 12.10 20.36 22.14 23.08 23.79 24.85 25.44
36.99 36.70 34.94 33.20 32.81 32.33 31.13 31.18 30.57 30.22 28.36 27.99 26.84 25.82 26.07 26.67 25.72 24.26 21.69 18.71 16.37 15.93 15.90 20.10 22.75 21.96 19.89 16.72 12.97 18.19 18.69 18.81 21.06 21.63 22.26 21.53 23.29 24.17
34.08 32.41 31.97 32.17 31.55 31.27 30.45 29.41 29.02 29.67 27.86 27.31 26.89 26.34 25.72 24.63 23.52 22.29 20.54 15.18 13.33 13.71 11.89 14.83 10.72 13.93 13.49 18.38 23.29 17.32 18.72 19.07 21.33 21.77 21.68 19.89 20.61 23.92
32.66 31.96 31.37 30.96 30.65 30.73 30.04 28.80 27.60 28.39 27.78 26.74 26.22 25.76 24.35 22.64 24.51 19.89 19.35 18.37 16.13 15.09 13.29 11.99 4.78 11.73 8.64 7.37 18.04 26.18 13.46 19.71 19.94 19.88 21.06 20.91 20.49 22.62
31.91 30.90 30.39 30.40 30.09 29.56 28.69 28.07 27.73 27.41 26.51 25.89 24.40 23.37 22.16 21.09 18.42 17.96 16.56 11.17 11.37 11.80 9.21 7.10 1.86 -1.67 10.70 14.87 15.88 19.00 25.07 19.50 18.83 18.89 19.73 22.12 23.92 27.91
30.13 29.89 30.15 29.60 29.19 28.81 28.46 28.36 27.83 26.23 24.24 22.51 21.66 21.82 19.97 17.82 17.31 17.30 15.25 20.98 19.45 11.85 9.22 6.70 11.76 21.92 15.08 9.91 7.18 14.87 19.85 25.62 25.00 20.97 20.56 20.27 19.80 21.30
29.34 28.67 28.70 28.63 28.74 28.88 28.35 27.27 24.88 26.02 22.36 20.16 19.16 18.11 17.84 17.21 16.86 16.24 16.79 13.10 13.93 11.68 9.17 11.50 13.09 6.80 2.95 6.52 10.70 12.76 15.44 20.46 23.75 25.47 26.81 25.72 20.55 18.02
27.85 27.74 28.10 28.25 28.54 28.02 26.57 23.96 23.01 23.13 21.44 19.97 17.71 16.67 16.23 14.80 17.78 18.39 17.21 16.59 13.26 9.51 9.28 7.72 6.90 5.12 10.04 7.13 16.67 15.55 14.56 16.09 18.90 19.01 20.37 26.04 27.16 27.54

GFSNE_sfc_wetblb_237.txt.gz
Wetbulb
52.88 51.56 50.63 49.34 49.67 48.76 46.98 47.35 44.72 39.28 39.97 39.86 39.56 41.09 41.09 41.37 42.53 41.44 41.10 43.07 42.71 42.70 42.91 42.81 42.32 42.07 42.32 42.52 43.03 43.62 44.20 44.68 44.36 44.77 45.47 45.59 45.54 46.17
51.78 50.55 50.83 48.52 48.71 48.24 47.53 46.51 46.11 44.27 42.14 39.70 39.33 39.65 40.13 39.72 42.38 38.84 38.67 42.45 42.08 42.35 42.43 42.08 41.63 41.59 41.82 42.14 42.26 42.56 43.35 44.04 44.44 44.26 44.36 44.65 44.83 44.84
50.49 49.67 48.94 48.17 47.52 47.17 46.36 45.25 43.67 43.60 40.27 35.55 36.52 36.82 37.71 38.47 39.85 37.70 39.92 38.44 40.75 41.76 41.41 41.36 41.05 40.64 40.98 41.49 41.85 42.14 42.15 42.36 42.77 42.93 43.15 43.62 43.78 44.04
48.87 48.39 48.17 46.18 46.62 46.73 45.35 44.08 44.01 42.82 40.38 35.29 34.31 34.87 36.02 38.29 37.42 36.17 36.31 37.00 37.90 39.70 40.50 40.49 40.22 40.23 40.59 40.83 41.08 40.70 40.64 40.32 40.09 40.59 41.42 42.09 42.54 42.87
47.93 48.29 47.57 45.90 44.49 44.31 44.19 42.78 42.53 39.49 38.94 36.19 33.07 34.98 34.72 35.55 34.60 35.12 35.37 36.63 36.56 37.34 39.44 39.23 39.45 39.48 39.10 38.96 38.76 38.08 37.71 38.40 39.03 39.40 39.79 40.31 40.81 41.44
48.34 48.75 48.00 45.94 46.10 43.88 44.01 43.67 41.05 38.80 37.22 36.59 34.29 33.97 34.43 34.07 35.23 33.81 33.21 35.30 35.51 36.02 36.88 37.85 37.64 36.78 36.97 37.08 36.22 35.62 36.42 37.45 38.36 39.22 39.57 39.74 39.79 39.99
46.63 47.62 47.53 45.88 45.40 45.19 43.43 41.89 39.70 37.96 36.21 35.11 32.84 32.75 32.20 31.98 33.02 34.15 34.33 34.11 34.18 35.32 35.08 35.68 36.35 36.11 35.82 34.33 33.86 34.69 36.11 37.00 37.58 37.55 37.58 37.59 37.77 38.12
42.53 41.40 40.79 42.27 43.83 44.71 44.36 42.55 41.36 37.55 35.31 34.98 33.53 33.37 32.92 33.70 33.64 33.12 33.08 31.44 30.26 34.23 33.87 34.00 34.95 34.34 34.54 34.05 33.66 34.76 35.61 36.36 36.11 36.58 36.46 36.63 36.80 36.91
40.01 38.45 37.93 38.79 41.13 40.12 40.39 40.11 40.59 41.27 39.59 36.91 34.10 33.54 32.42 33.43 34.07 32.50 32.57 32.44 31.73 32.74 33.86 31.81 33.64 32.43 33.54 32.59 32.59 34.08 34.91 35.59 35.68 35.38 35.42 35.55 35.71 36.01
38.86 38.57 38.00 37.89 38.04 37.65 36.87 36.47 36.91 37.20 37.04 35.58 36.26 35.17 35.52 35.34 35.94 34.73 33.77 33.04 33.18 32.57 33.16 29.51 31.06 30.75 32.54 32.01 31.66 33.50 33.59 33.58 33.84 34.06 34.34 34.45 34.69 34.91
37.76 37.71 37.91 37.03 40.13 39.80 36.14 34.25 34.14 35.16 38.35 38.31 37.70 37.54 37.47 37.14 35.87 34.40 31.93 31.32 28.96 29.75 30.91 30.22 29.19 28.12 29.15 29.84 31.69 31.67 32.21 32.19 32.64 33.04 33.22 33.33 33.57 33.74
35.80 36.99 39.42 38.07 41.00 39.40 35.00 33.92 32.62 33.47 34.66 35.41 36.01 36.68 37.04 37.04 36.94 35.73 33.42 30.62 29.31 27.93 29.89 28.24 27.70 27.24 25.44 29.11 29.98 30.64 30.68 30.30 31.63 31.74 31.76 32.22 32.45 31.45
34.96 35.51 37.35 41.20 40.42 39.05 37.29 35.02 34.24 35.28 35.76 34.33 33.52 33.41 33.80 34.05 32.93 32.81 33.11 32.40 29.63 28.21 30.04 29.17 27.43 27.27 26.48 25.89 28.27 29.36 29.19 29.00 28.78 29.04 29.88 30.86 31.78 31.85
35.16 36.38 38.37 40.23 39.24 38.63 37.19 38.32 37.81 36.45 33.82 32.68 31.70 30.76 30.18 29.81 30.21 30.55 30.55 30.40 30.51 29.23 30.41 29.89 27.19 26.53 25.35 24.10 23.71 27.41 28.06 28.18 27.97 27.25 27.87 29.58 30.34 30.79
36.35 37.67 40.06 39.15 38.83 38.16 39.55 38.72 37.28 33.27 31.97 30.98 30.36 29.59 30.08 30.33 29.79 29.38 29.74 29.72 29.58 29.15 29.37 29.51 27.97 26.40 24.93 24.06 23.43 24.12 24.28 25.91 26.91 26.55 27.35 27.07 27.26 27.85
38.03 38.49 38.15 38.20 37.98 38.60 38.46 36.56 33.21 32.82 31.64 30.72 30.07 29.94 29.75 29.02 28.14 28.97 27.61 26.96 26.06 26.49 28.06 27.92 27.29 25.47 23.81 23.98 23.76 22.60 24.30 22.04 25.60 26.08 26.06 26.61 27.64 28.24
36.98 36.58 35.82 34.55 34.48 33.86 33.11 31.38 31.94 32.56 30.44 30.22 29.30 28.30 28.08 28.16 27.44 28.03 26.70 25.31 24.48 23.88 24.39 25.56 25.43 25.31 24.64 23.27 21.19 22.79 22.89 23.42 25.29 25.62 24.94 24.55 26.10 27.63
35.52 34.03 32.85 33.39 32.02 32.23 31.48 30.86 31.06 30.97 30.17 29.58 28.88 28.45 27.71 27.46 26.26 25.84 24.99 24.40 23.25 22.34 22.04 22.93 22.05 21.29 20.75 22.40 25.18 22.20 23.30 23.95 24.89 25.66 24.99 23.56 24.04 27.14
33.49 32.96 32.48 32.70 31.98 32.01 31.35 30.77 29.82 30.08 30.04 29.67 28.88 28.45 27.84 27.32 26.75 24.54 23.98 23.25 21.87 21.75 22.01 21.45 19.82 18.29 16.71 16.21 21.83 26.88 22.77 23.74 23.52 23.64 24.23 24.02 23.68 25.38
33.04 32.12 31.64 31.91 31.96 31.43 31.04 30.44 29.90 29.49 29.08 28.93 28.45 27.97 27.06 26.20 24.72 23.79 23.35 21.82 21.57 21.00 20.13 19.58 17.74 16.76 17.16 17.26 18.31 21.67 24.68 22.71 22.91 22.57 23.68 25.25 26.54 28.22
31.59 31.41 31.94 31.74 31.48 31.32 30.99 30.75 30.36 29.45 28.96 28.14 27.36 26.40 25.41 24.77 23.93 23.70 22.84 23.00 21.65 19.84 18.88 18.85 20.65 21.79 19.29 17.68 15.67 18.67 23.28 25.53 25.45 24.21 24.44 22.70 21.92 23.81
31.14 30.94 31.22 31.40 31.18 31.29 31.11 30.66 29.77 30.02 27.85 26.78 26.09 25.33 24.58 24.17 23.17 22.20 21.53 21.22 21.26 21.13 19.71 20.94 20.73 19.31 17.42 17.39 17.37 17.96 19.39 22.66 25.02 25.61 26.19 26.01 23.46 19.12
30.29 30.32 30.79 30.76 31.31 30.97 30.26 29.44 28.82 27.68 26.32 24.90 24.04 23.54 22.66 22.01 22.63 22.33 21.95 21.04 20.55 18.90 18.68 18.85 18.62 16.82 17.43 17.14 18.41 19.09 18.93 19.65 21.80 22.00 23.58 26.79 27.11 27.54

GFSNE_sfc_wetblb_240.txt.gz
Wetbulb
56.54 56.13 54.76 53.31 53.13 53.74 53.19 51.75 49.65 44.15 43.99 46.48 44.45 47.01 45.74 44.27 44.95 44.17 44.09 46.03 44.54 44.61 44.87 45.46 44.63 43.55 43.13 43.09 43.35 43.79 44.24 44.58 45.04 45.33 45.34 45.37 45.74 46.27
55.58 54.52 54.08 53.45 51.74 53.72 52.64 53.01 52.26 50.40 47.62 48.95 46.17 45.37 45.25 43.33 44.59 43.84 43.13 44.33 44.17 44.08 44.01 43.55 43.22 42.74 42.65 42.77 42.96 42.86 43.09 43.50 44.03 44.68 45.09 44.73 44.92 45.25
54.01 53.80 52.63 53.33 50.99 51.35 51.06 51.81 50.97 51.39 48.83 42.02 45.17 43.62 43.89 42.59 42.51 42.60 41.56 42.10 42.59 43.47 43.54 42.98 42.64 41.89 41.73 41.92 42.23 42.39 42.55 42.52 42.62 42.43 42.86 43.28 43.96 44.19
52.02 52.43 51.64 51.66 50.56 51.88 50.47 47.87 48.85 49.93 46.75 40.28 40.06 40.04 41.73 42.61 42.69 40.21 39.60 40.25 41.45 42.41 42.50 42.22 42.29 41.50 41.47 41.56 41.50 40.94 40.60 40.30 39.67 40.26 41.22 41.76 42.33 42.76
51.70 51.24 51.02 50.81 49.87 51.33 50.24 47.91 46.59 44.01 45.15 41.83 38.21 40.39 40.36 41.60 40.83 39.89 39.45 38.87 39.54 40.80 41.59 41.53 41.28 41.01 40.74 40.31 39.57 38.49 37.68 37.84 38.39 39.17 39.96 40.48 40.98 41.74
51.27 50.74 50.61 50.51 50.98 51.29 48.83 47.78 44.51 41.94 41.48 42.38 39.71 39.13 39.02 39.86 39.20 36.66 35.68 38.13 37.23 37.91 39.69 39.92 40.20 39.36 38.68 38.52 37.48 36.01 35.95 36.92 38.00 38.97 39.25 39.05 38.62 39.11
49.88 49.60 50.32 50.44 48.58 49.99 48.44 46.60 43.78 41.65 40.13 40.50 38.54 37.83 36.49 35.23 35.24 37.03 36.70 36.44 38.26 38.60 38.13 38.31 38.61 37.71 37.51 36.67 35.40 34.84 35.84 36.81 37.60 37.37 37.75 37.96 37.73 37.89
47.82 48.48 49.42 46.02 46.85 48.05 48.63 48.10 46.88 43.42 40.73 40.88 39.35 37.70 36.17 36.12 37.31 37.23 37.74 35.50 33.28 38.29 36.44 35.23 36.70 36.48 37.18 36.98 34.63 34.63 35.45 36.60 36.21 36.07 36.56 36.63 36.74 36.74
46.74 46.38 45.24 45.74 46.63 47.45 46.18 46.30 45.26 45.72 45.59 43.21 39.49 38.99 36.96 37.76 38.17 36.37 36.46 35.62 34.47 34.26 35.32 33.85 36.43 34.72 36.64 35.01 33.26 34.12 35.54 36.51 35.80 35.02 35.30 35.46 35.57 35.79
44.28 44.10 43.17 43.50 46.16 44.30 42.73 42.26 41.48 41.61 41.00 40.58 42.07 40.98 40.18 39.70 38.15 36.94 36.21 36.01 35.11 34.34 36.14 31.78 33.82 32.75 35.25 35.15 32.57 34.50 34.16 33.05 33.40 33.81 34.39 34.46 34.42 34.47
42.33 42.87 42.81 42.86 43.39 42.85 40.90 39.09 38.48 37.34 39.42 40.58 40.43 40.21 40.32 40.34 38.39 37.36 34.58 32.93 31.60 32.04 33.20 31.81 31.26 31.23 32.47 32.68 33.90 34.64 32.37 32.34 32.34 33.20 33.47 33.46 33.30 33.46
39.64 40.85 42.13 41.76 42.47 42.01 38.83 36.87 35.07 35.17 36.09 36.75 37.67 38.21 38.43 38.20 38.39 38.55 35.86 33.41 31.36 29.30 32.08 30.76 29.79 29.21 28.50 31.22 31.79 32.62 33.04 32.45 32.28 32.36 32.59 32.50 32.55 31.46
36.95 37.40 39.68 41.89 42.22 41.48 40.12 37.64 36.41 36.85 37.06 35.89 35.66 35.66 36.04 35.23 34.76 35.52 36.01 35.16 32.87 30.68 32.14 31.94 29.45 28.75 28.00 28.18 30.03 31.59 31.59 31.14 30.77 30.78 31.16 31.39 31.89 32.06
36.62 37.72 38.70 41.47 40.99 40.20 39.05 39.61 39.09 37.57 35.46 33.99 33.26 33.34 33.56 32.95 32.84 33.02 32.95 32.72 33.37 33.05 32.48 31.45 29.53 28.92 27.76 26.62 25.97 29.60 30.33 30.37 30.15 29.06 29.28 30.78 31.39 31.79
37.42 38.17 40.34 41.03 39.37 38.62 39.28 39.10 37.49 35.03 34.06 33.41 32.67 32.19 32.42 32.59 31.57 30.89 30.88 30.77 31.01 30.87 30.83 31.71 30.40 29.32 28.36 26.01 25.46 26.51 26.12 28.10 29.41 28.17 28.83 29.04 28.79 29.42
38.92 39.79 39.61 38.20 37.67 37.86 37.72 36.21 34.80 34.72 34.21 33.21 32.24 31.58 31.11 30.33 29.75 30.35 28.98 28.99 28.26 27.66 29.43 30.76 30.24 28.67 26.47 26.55 26.00 24.98 26.51 24.76 27.93 28.13 28.04 28.37 29.18 29.63
38.52 37.20 35.71 34.60 34.39 34.78 33.72 32.83 33.01 33.26 32.64 33.11 31.52 30.43 29.67 29.81 28.98 29.72 29.05 27.68 26.93 26.49 26.29 27.57 27.97 27.76 27.29 25.81 23.49 25.02 24.99 25.83 27.61 27.93 27.11 26.18 28.18 29.41
36.20 34.45 33.62 33.70 33.48 32.15 31.28 31.50 32.02 33.16 33.19 33.00 32.22 30.97 29.87 29.34 28.31 28.25 27.95 27.11 26.36 25.50 25.35 26.23 25.76 24.56 24.42 25.45 27.06 24.06 25.15 25.42 27.32 27.76 27.22 25.46 25.98 29.06
34.24 33.65 32.88 32.69 31.95 31.91 31.83 31.90 31.70 32.44 32.37 32.06 31.66 31.04 30.32 29.76 28.64 27.15 26.60 26.56 25.64 25.55 25.27 25.36 23.62 21.91 20.11 19.45 25.47 27.89 24.49 25.56 25.65 25.23 26.27 26.54 25.55 27.16
33.99 32.94 32.52 32.24 32.26 32.37 32.17 32.16 31.85 31.56 32.14 31.83 31.21 30.76 30.47 29.87 28.54 27.12 26.61 25.83 25.75 25.03 24.04 24.09 22.82 22.43 20.17 20.52 20.65 23.99 26.07 24.54 23.83 24.27 25.07 27.02 28.01 29.42
32.11 32.24 33.05 33.04 32.89 32.98 32.87 32.81 32.30 31.91 31.69 31.09 30.76 30.35 30.13 29.91 28.14 27.46 27.04 26.12 25.15 24.12 22.31 22.95 24.62 24.65 23.29 21.74 18.36 20.39 25.30 27.32 26.42 24.80 24.71 23.69 22.65 24.42
32.41 32.41 32.95 33.39 33.74 33.37 32.94 32.73 32.14 31.83 30.89 30.78 30.37 30.11 29.67 29.36 27.57 26.67 26.11 25.52 25.09 25.17 23.77 24.91 23.91 22.76 21.29 20.03 19.46 20.72 22.14 25.61 27.28 27.35 27.68 26.75 23.47 19.72
33.00 33.21 33.36 32.99 33.03 33.00 32.90 32.47 32.14 31.84 30.96 30.69 30.17 29.27 28.66 27.56 27.93 26.99 25.97 24.75 24.55 23.49 22.96 21.98 22.79 21.99 20.52 20.78 20.64 20.46 21.19 22.46 24.36 24.23 25.78 28.63 28.58 28.36